Flight Track Log - Related Links

Times and Time Zones

All times are in EDT time to prevent confusion due to time zone crossing. See the SWA1202 flight status page for this flight to view local times or setup timezone preferences in your user account.

Time Position Orientation Groundspeed Altitude Reporting Facility
EDT Latitude Longitude Course Direction KTS MPH feet Rate Location/Type
08:14AM 40.8119 -111.9633 353° North 177 204 5,500  Level Salt Lake Center
08:15AM 40.8456 -111.9689 353° North 205 236 6,300 1,976 Climbing Salt Lake Center
08:16AM 40.8986 -111.9764 354° North 245 282 8,300 2,273 Climbing Salt Lake Center
08:16AM 40.9108 -111.9775 356° North 245 282 8,800 2,571 Climbing Salt Lake Center
08:17AM 40.9853 -111.9758 North 274 315 11,600 2,231 Climbing Salt Lake Center
08:18AM 40.9956 -111.8672 83° East 343 395 13,300 2,380 Climbing Salt Lake Center
08:19AM 40.9519 -111.7197 111° Southeast 373 429 16,400 2,529 Climbing Salt Lake Center
08:20AM 40.9222 -111.5825 106° East 399 459 18,400 1,884 Climbing Salt Lake Center
08:21AM 40.9117 -111.4297 95° East 419 482 20,200 1,983 Climbing Salt Lake Center
08:22AM 40.8950 -111.2711 98° East 436 502 22,400 1,983 Climbing Salt Lake Center
08:23AM 40.8756 -111.1125 99° East 440 506 24,200 1,800 Climbing Salt Lake Center
08:24AM 40.8556 -110.9464 99° East 457 526 26,000 1,636 Climbing Salt Lake Center
08:25AM 40.8347 -110.7814 99° East 457 526 27,500 1,388 Climbing Salt Lake Center
08:26AM 40.8142 -110.6100 99° East 471 542 28,800 1,240 Climbing Salt Lake Center
08:27AM 40.7903 -110.4217 99° East 478 550 30,000 1,180 Climbing Salt Lake Center
08:28AM 40.7692 -110.2517 99° East 489 563 31,200 1,339 Climbing Salt Lake Center
08:29AM 40.7447 -110.0597 99° East 494 568 32,700 1,388 Climbing Salt Lake Center
08:30AM 40.7308 -109.8867 96° East 497 572 34,000 1,190 Climbing Salt Lake Center
08:31AM 40.7194 -109.7144 95° East 493 567 35,100 1,041 Climbing Salt Lake Center
08:32AM 40.7061 -109.5403 96° East 496 571 36,100 942 Climbing Salt Lake Center
08:33AM 40.6911 -109.3394 96° East 493 567 37,000 446 Climbing Salt Lake Center
08:34AM 40.6781 -109.1658 96° East 494 568 37,000  Level Salt Lake Center
08:35AM 40.6672 -108.9967 95° East 489 563 37,000  Level Salt Lake Center
08:36AM 40.6544 -108.8192 95° East 492 566 37,000  Level Denver Center
08:37AM 40.6419 -108.6506 96° East 486 559 37,000  Level Denver Center
08:38AM 40.6264 -108.4583 96° East 491 565 37,000  Level Salt Lake Center
08:39AM 40.6114 -108.2611 96° East 487 560 37,000  Level Salt Lake Center
08:40AM 40.5997 -108.1131 96° East 485 558 37,000  Level Denver Center
08:41AM 40.5872 -107.9433 95° East 485 558 37,000  Level Denver Center
08:42AM 40.5711 -107.7464 96° East 485 558 37,000  Level Denver Center
08:43AM 40.5564 -107.5761 96° East 487 560 37,000  Level Denver Center
08:44AM 40.5414 -107.4058 97° East 489 563 37,000  Level Denver Center
08:45AM 40.5247 -107.2083 96° East 486 559 37,000  Level Denver Center
08:46AM 40.5117 -107.0589 97° East 487 560 37,000  Level Denver Center
08:47AM 40.4958 -106.8803 97° East 489 563 37,000  Level Denver Center
08:48AM 40.4797 -106.7022 97° East 489 563 37,000 -393 Level Denver Center
08:49AM 40.4614 -106.5028 97° East 487 560 36,200 -1,721 Descending Denver Center
08:50AM 40.4464 -106.3308 96° East 492 566 33,500 -2,803 Descending Denver Center
08:51AM 40.4269 -106.1297 97° East 496 571 30,500 -3,541 Descending Denver Center
08:52AM 40.4089 -105.9486 97° East 497 572 26,300 -3,985 Descending Denver Center
08:53AM 40.3875 -105.7361 97° East 498 573 21,600 -3,403 Descending Denver Center
08:54AM 40.3692 -105.5675 98° East 469 540 18,700 -1,967 Descending Denver Center
08:55AM 40.3450 -105.4200 102° East 411 473 17,600 -1,377 Descending Denver Center
08:56AM 40.2856 -105.3261 130° Southeast 338 389 15,900 -1,574 Descending Denver Center
08:57AM 40.2250 -105.2317 130° Southeast 339 390 14,400 -1,180 Descending Denver Center
08:58AM 40.1656 -105.1356 129° Southeast 308 354 13,500 -744 Descending Denver Center
08:59AM 40.1003 -105.1156 167° South 246 283 12,900 -298 Descending Denver Center
09:00AM 40.0333 -105.1222 184° South 242 278 12,900 -344 Level Denver Center
09:01AM 39.9658 -105.1317 186° South 243 280 12,200 -738 Descending Denver Center
09:02AM 39.8933 -105.1436 187° South 244 281 11,400 -836 Descending Denver Center
09:03AM 39.8506 -105.1194 157° South 200 230 10,500 -1,180 Descending Denver Center
09:04AM 39.8433 -105.0489 98° East 198 228 9,000 -787 Descending Denver Center
09:05AM 39.8419 -104.9808 92° East 189 217 8,900 -541 Descending Denver Center
09:06AM 39.8419 -104.9128 90° East 188 216 7,900 -934 Descending Denver Center
09:07AM 39.8414 -104.8464 91° East 183 211 7,000 -885 Descending Denver Center
09:08AM 39.8411 -104.7833 90° East 162 186 6,100 -843 Descending Denver Center
09:09AM 39.8411 -104.7306 90° East 150 173 5,300 -446 Descending Denver Center
09:11AM 39.8400 -104.6992 93° East 107 123 5,200 -98 Descending Denver Center
09:12AM 39.8500 -104.6667 21° North  Level FlightAware Approximate
09:19AM 39.8617 -104.6732 21° North  Level Estimated
09:20AM 39.8617 -104.6732 21° North  Level Estimated
09:21AM 39.8617 -104.6732 21° North  Level Estimated

Login

Don't have an account? Register now (free) for customized features, flight alerts, and more!